User: anonymous   Login
Location: Owatonna
(44.0840°N, 93.2260°W)
Time: 22:32:12
(UTC-05:00)
Language:

Cosmos 1500 Rocket - Orbit

View from above orbital plane
View from above orbital plane
View from above satellite
View from above satellite

Ground track
Ground track

The orbit data is extracted from the following two-line orbital elements,

1 14373U 83099B   17117.92671212 +.00000094 +00000-0 +83526-5 0  9996
2 14373 082.5382 291.5158 0021095 036.2875 075.1255 14.83672742792329
Epoch (UTC): 27 April 2017 22:14:27
Eccentricity: 0.0021095
inclination: 82.5382°
perigee height: 603 km
apogee height: 632 km
right ascension of ascending node: 291.5158°
argument of perigee: 36.2875°
revolutions per day: 14.83672742
mean anomaly at epoch: 75.1255°
orbit number at epoch: 79232

The dashed part of the orbit path shows where the satellite is in the earth's shadow,  

DLR